Погода в Костюковичи

Погода в Костюковичи : погода сейчас, прогноз погоды и архив. Всё, что Вы хотите узнать о погоде в Костюковичи!

Поиск расширенной информации на нашем сайте:

Другие новости

Новости СМИ2

Главная страница сайта

Новости сайта

03.07.2017

Напоминаем, что на нашем специализированном сайте Метеоцентр.Азия вы можете получить высокодетализированные автоматические прогнозы погоды по пунктам России, СНГ и мира в авиационном формате (включающие направление и скорость ветра, видимость, явления погоды, количество и форму облачности, нижнюю и верхнюю границу облачности).

Рекомендуем: церетон

Погода в Костюковичи - сегодня

Время (UTC), дата Ветер
(°,м/с) 
Видим.   Явления Облачность Т
(°С)
Тd
(°С)
f(%) Тe
(°С)
Pmin
(гПа)
dP
(гПа)
Po
(мм)
O2
(г/м3)
Тmin Tmax R s Состояние
почвы
18 21.11.17 210 (ЮЗ) 7000 м  дымка  10/10 900 м 
[Sc]
-1.1 -2.1 93 -1  1010.4  742  300    -0.5  0.0     
21 21.11.17 тихо ()   6000 м  дымка  10/10 750 м 
[Sc]
-1.6 -2.4 94 -2  1010.7  0.3  742  301           
00 22.11.17 330 (СЗ) 8000 м  дымка  10/10 270 м 
[St]
-2 -3.2 91 -1  1011.4  0.6  743  302           
03 22.11.17 340 (С) 8000 м  дымка  10/10 210 м 
[St]
-2.3 -3.2 94 -3  1011.9  0.5  743  302           
06 22.11.17 230 (ЮЗ) 8000 м  дымка  8/8 1000 м 
[Sc]
-2.6 -3.2 96 -2  1012.7  0.8  744  303  -2.6         
09 22.11.17 280 (З) 7000 м  дымка  10/10 210 м 
[St]
-1.5 -2.3 94 -2  1013.5  0.9  744  302           
12 22.11.17 330 (СЗ) 20000 м    10/10 330 м 
[St]
-1 -3.2 85 -3  1014.4  0.9  745  302           
15 22.11.17 320 (СЗ) 22000 м    10/10 360 м 
[St]
-1.4 -3.1 88 -2  1015.8  1.3  746  302           
18 22.11.17 340 (С) 22000 м    10/10 600 м 
[Sc]
-1.5 -3.2 88 -2  1017.2  1.4  747  303    -1       
21 22.11.17 250 (З) 15000 м    ясно 
-2 -3.8 87 -3  1017.8  0.5  747  304           
00 23.11.17 270 (З) 25000 м    10/10 800 м 
[Sc]
-1.8 -3.6 87 -1  1018.4  0.7  748  304           
03 23.11.17 320 (СЗ) 23000 м    ясно 
-2.2 -4.7 83 -3  1019.7  1.1  749  305           
06 23.11.17 310 (СЗ) 20000 м    10/10 450 м 
[St]
-2.4 -4.6 85 -4  1020.9  1.2  750  305  -2.7         
09 23.11.17 320 (СЗ) 35000 м    10/10 540 м 
[Sc]
-1.4 -4 82 -3  1021.3  0.5  750  304           
12 23.11.17 290 (З) 35000 м    10/10 600 м 
[Sc]
-1 -4.9 75 -3  1021.5  0.2  750  304           
15 23.11.17 330 (СЗ) 35000 м    10/10 540 м 
[Sc]
-2 -5.1 79 -4  1022.4  0.8  751  305           
18 23.11.17 360 (С) 35000 м    10/10 500 м 
[Sc]
-2 -4.8 81 -3  1023  0.6  751  305    -0.8       
21 23.11.17 тихо ()   35000 м    3/0 средняя 
[Ac trans]
-3.8 -6 85 -4  1022.8  -0.2  751  308           
00 24.11.17 тихо ()   35000 м    10/10 330 м 
[St]
-4.1 -6 87 -4  1023  0.2  751  308           
03 24.11.17 180 (Ю) 35000 м    ясно 
-5.6 -6.7 92 -5  1023.9  0.7  752  310           
06 24.11.17 160 (Ю) 35000 м    10/10 270 м 
[St]
-4.8 -6.1 91 -7  1024.2  0.3  752  309  -6.5         
09 24.11.17 130 (ЮВ) 35000 м    10/10 300 м 
[St]
-4.2 -6.1 87 -6  1024.2  752  308           
12 24.11.17 170 (Ю) 35000 м    9/9 2000 м средняя 
[Ac inh]
-2.8 -5.5 82 -5  1024.2  0.1  752  307           
15 24.11.17 140 (ЮВ) 35000 м    8/8 2000 м средняя 
[Ac inh]
-4 -6.2 85 -5  1024.1  -0.2  752  308           
18 24.11.17 160 (Ю) 35000 м    8/8 2000 м средняя 
[Ac trans]
-4.1 -6.2 85 -6  1023.5  -0.5  752  308  -2.8         
Время (UTC), дата Ветер
(°,м/с) 
Видим.   Явления Облачность Т
(°С)
Тd
(°С)
f(%) Тe
(°С)
Pmin
(гПа)
dP
(гПа)
Po
(мм)
O2
(г/м3)
Тmin Tmax R s Состояние
почвы

Для получения пояснительной информации подведите курсор к названию столбца.

ПОГОДА в Костюковичи - архив

Всё, что Вы хотите узнать о погоде в Костюковичи - удобно и подробно!

Выберите нужную дату (начиная с 1 января 2015* года) и нажмите кнопку "Найти".
Будут отображены архивные сводки погоды по пункту Костюковичи, начиная с указанной даты.


Отображать данные в формате CSV (для использования в таблицах Excel)


Внимание! Наш архив погоды предназначен исключительно для личного некоммерческого использования в познавательных целях. Если Вам необходимы официальные справки о состоянии погоды (для производственных, юридических, коммерческих и т.п. целей), обращайтесь в органы Росгидромета.

*Примечание: данная дата относится к архиву по метеостанциям СССР (Россия, СНГ, Балтия).
Архив по метеостанциям Зарубежной Европы и Азии (кроме Китая) хранится 10 дней, по другим регионам земного шара (Китай, Африка, Америка, Австралия, Океания) - 1 день.

Костюковичи - район местоположения метеостанции


Название, широта, долгота, высота метеостанции:
Костюковичи 53.3°ш. 32.1°д. 167 м над ур. моря [Беларусь]

Дополнительная информация

В oтличие oт бoльшинства пoгoдных сайтoв мы публикуем пoдрoбную метеoинфoрмацию в детальнoм прoфессиoнальнoм фoрмате.

Характеристики температуры и влажнoсти вoздуха измеряются на высoте 2 м в тени вдали oт зданий и деревьев.
Скoрoсть ветра измеряется на высoте 10 м (на урoвне рoста челoвека скoрoсть ветра ниже в 1.5-2 раза). Если метеoстанция нахoдится в гoрoде или в лесу, тo скoрoсть ветра занижена на 2-4 м/с пo сравнению с oткрытым местoм. Скoрoсть ветра над акватoриями крупных рек и oзёр, а также на вершинах хoлмoв на 2-5 м/с выше, чем в oбычных услoвиях.
Атмoсфернoе давление в разных тoчках местнoсти мoжет значительнo oтличаться oт давления на метеoстанции, в зависимoсти oт услoвий рельефа (при пoдъёме на 10 м давление пoнижается примернo на 1 мм рт.ст.).